SV2BBO-11 Weather Reports


Display with metric or nautical units.
time (UTC)temp
F
wind
direction
speed
MPH
gust
MPH
rain 1hr
in
rain 24hr
in
rain mn
in
humidity
%
barometer
mb
20260507032716 59 0 0.0 0.0 0.00 0.00 0.00 80 1015.8
20260507031805 59 0 0.0 0.0 0.00 0.00 0.00 79 1015.8
20260507031305 59 0 0.0 0.0 0.00 0.00 0.00 79 1015.7
20260507030305 59 0 0.0 0.0 0.00 0.00 0.00 77 1015.7
20260507025306 59 0 0.0 0.0 0.00 0.00 0.00 78 1015.6
20260507024305 59 0 0.0 0.0 0.00 0.00 0.00 77 1015.5
20260507023805 59 0 0.0 0.0 0.00 0.00 0.00 77 1015.5
20260507023305 59 0 0.0 0.0 0.00 0.00 0.00 77 1015.5
20260507010805 60 0 0.0 0.0 0.00 0.00 0.00 76 1015.2
20260507002426 60 0 0.0 0.0 0.00 0.00 0.00 76 1014.8
20260507001926 60 0 0.0 0.0 0.00 0.00 0.00 76 1014.8
20260507001426 60 0 0.0 0.0 0.00 0.00 0.00 76 1014.8
20260506231753 62 0 0.0 0.0 0.00 0.00 0.00 78 1015.3
20260506231253 62 0 0.0 0.0 0.00 0.00 0.00 78 1015.3
20260506223753 63 0 0.0 0.0 0.00 0.00 0.00 80 1015.3
20260506215753 63 0 0.0 0.0 0.00 0.00 0.00 81 1015.3
20260506214753 63 0 0.0 4.0 0.00 0.00 0.00 81 1015.4
20260506214253 63 0 0.0 4.0 0.00 0.00 0.00 81 1015.4
20260506211753 64 0 0.0 3.0 0.00 0.00 0.00 81 1015.5
20260506204824 64 0 0.0 5.0 0.00 0.00 0.00 80 1015.6
20260506204324 64 0 0.0 3.0 0.00 0.00 0.00 80 1015.6
20260506062226 67 0 0.0 3.0 0.00 0.00 0.00 62 1016.0
20260506061726 67 0 0.0 1.0 0.00 0.00 0.00 63 1016.0
20260506050739 61 0 0.0 0.0 0.00 0.00 0.00 69 1016.0
20260506050238 61 0 0.0 0.0 0.00 0.00 0.00 70 1016.0
20260506044738 59 0 0.0 0.0 0.00 0.00 0.00 72 1015.9
20260506043738 58 0 0.0 0.0 0.00 0.00 0.00 72 1015.8
20260506043238 57 0 0.0 0.0 0.00 0.00 0.00 72 1015.8
20260506042738 57 0 0.0 0.0 0.00 0.00 0.00 73 1015.7